2020 QL2
ephemeris date magn radius delta ra dec elong phase
Today17 Oct 202523.90.945 AU0.282 AU18h21m-27°08'71.2°92.4°
2020 QL2 - 2025-10-17
astro.vanbuitenen.nl


 
-1 year
-1 month
-1 day
Now
+1 day
+1 month
+1 year

The interactive orbit chart above shows the body's path through the solar system and its position at the given date. Green and blue lines are shown perpendicular to the ecliptic plane: Green if the path is above the ecliptic plane, blue if it is below. (Left-click and drag to rotate the view; Right-click and drag to move the view; Use scroll wheel to zoom in our out.)

The orbital elements of 2020 QL2 are:

            e (Eccentricity)                : 0.3241170
            a (Semimajor axis)              : 1.1689823
            i (Inclination)                 : 4.74389
            Ω (Longitude of ascending node) : 173.35152
            ω (Argument of perihelion)      : 264.44880
            M (Mean anomaly)                : 192.62009
            Epoch                           : 2025 May 05

            L (Longitude of perihelion)     : 257.78136
            B (Latitude of perihelion)      : -4.72159
            P (Orbital period in years)     : 1.26            
        

The light curve chart below shows the estimated development of the minor planet's magnitude.


The all-sky chart below shows the path of the minor planet over the same period as the light curve. The current position is marked yellow.





The following chart shows the path of the minor planet in the next few days. The field of view is optimized for (~10x50) binoculars and finderscopes.




Ephemerides:
Date       Time       RA (2000)    DEC (2000)    delta   radius  elong  phase   PA    magn
2025-10-17 00:00 UT   18 21 08.1   -27 08 55     0.282    0.945   71.2   92.4    89   23.9 
2025-10-17 23:45 UT   18 21 02.8   -27 27 33     0.280    0.939   70.2   93.5    89   23.9 
2025-10-18 00:00 UT   18 21 02.8   -27 27 45     0.280    0.939   70.2   93.5    89   23.9 
2025-10-19 00:00 UT   18 20 54.4   -27 46 52     0.278    0.934   69.2   94.7    90   23.9 
2025-10-20 00:00 UT   18 20 42.5   -28 06 16     0.276    0.929   68.2   95.9    90   23.9 
2025-10-21 00:00 UT   18 20 26.8   -28 25 60     0.273    0.924   67.1   97.1    90   24.0 
2025-10-22 00:00 UT   18 20 06.9   -28 46 02     0.271    0.919   66.1   98.3    90   24.0 
2025-10-23 00:00 UT   18 19 42.2   -29 06 25     0.269    0.914   65.0   99.6    91   24.0 
2025-10-24 00:00 UT   18 19 12.4   -29 27 09     0.266    0.910   63.9  100.9    91   24.1 
2025-10-25 00:00 UT   18 18 36.9   -29 48 14     0.264    0.905   62.8  102.2    91   24.1 
2025-10-26 00:00 UT   18 17 55.2   -30 09 40     0.261    0.900   61.6  103.6    92   24.1 
2025-10-27 00:00 UT   18 17 06.7   -30 31 28     0.259    0.895   60.5  104.9    92   24.2 
2025-10-28 00:00 UT   18 16 10.9   -30 53 39     0.256    0.891   59.3  106.4    93   24.2 
2025-10-29 00:00 UT   18 15 07.1   -31 16 11     0.253    0.886   58.1  107.8    93   24.3 
2025-10-30 00:00 UT   18 13 54.7   -31 39 04     0.251    0.882   56.9  109.3    94   24.3 
2025-10-31 00:00 UT   18 12 33.0   -32 02 18     0.248    0.877   55.7  110.8    95   24.4 
2025-11-01 00:00 UT   18 11 01.3   -32 25 51     0.245    0.873   54.4  112.4    95   24.4 
2025-11-02 00:00 UT   18 09 19.0   -32 49 42     0.243    0.869   53.1  114.0    96   24.5 
2025-11-03 00:00 UT   18 07 25.2   -33 13 49     0.240    0.864   51.8  115.6    97   24.6 
2025-11-04 00:00 UT   18 05 19.3   -33 38 08     0.237    0.860   50.4  117.3    98   24.7 
2025-11-05 00:00 UT   18 03 00.5   -34 02 37     0.235    0.856   49.0  119.0    99   24.8 


    Terminology:
            
    delta:  distance between minor planet and earth in AU
    radius: distance between minor planet and sun in AU
    magn:   magnitude (brightness) estimate    
    ra:     right ascension in hours (24h = 360deg)
    dec:    declination in degrees
    elong:  elongation in degrees (angle sun-earth-minor planet)    
    phase:  phase angle in degrees (angle sun-minor planet-earth)        
    AU:     Astronomical Unit (mean distance between earth and sun: 149597870.7 km
    

Orbital elements provided by the MPC (Minor Planet Center).
Calculations by a modified version of AAPlus, a C# implementation of the AA+ project by PJ Naughter from the algorithms presented in the book "Astronomical Algorithms" by Jean Meeus.
NGC2000 dso catalog and star labels from VizieR as provided by the Strasbourg astronomical Data Center.
Tycho2 catalog from the ESO archive.